Regional Weather Roundup
Issued by NWS Jackson, KY

Home | Current Version | Previous Version | Graphics & Text | Print | Product List | Glossary On
Versions: 1 2 3 4 5 6 7 8 9 10 11 12 13 14 15 16 17 18 19 20 21 22 23 24 25 26 27 28 29 30 31 32 33 34 35 36 37 38 39 40 41 42 43 44 45 46 47 48 49 50
000
ASUS43 KJKL 021810
RWRJKL

EAST KENTUCKY HOURLY WEATHER ROUNDUP
NATIONAL WEATHER SERVICE JACKSON KY
200 PM EDT MON MAY 02 2016

NOTE: "FAIR" INDICATES FEW OR NO CLOUDS BELOW 12,000 FEET WITH
NO SIGNIFICANT WEATHER AND/OR OBSTRUCTIONS TO VISIBILITY.

* THESE REPORTS ARE NOT UNDER NWS QUALITY CONTROL AND MAY NOT
  REPORT WEATHER SUCH AS PRECIPITATION AND FOG.

KYZ079-080-083-085-087-088-110-112-115-119-120-021900
...EASTERN KENTUCKY...

CITY           SKY/WX    TMP DP  RH WIND       PRES   REMARKS
JACKSON        TSTM      63  60  90 NW5       29.97R FOG
6HR MIN TEMP:  63; 6HR MAX TEMP:  73; 6HR PCP:  0.20;

LONDON         TSTM      67  61  81 NW8       29.96R
6HR MIN TEMP:  65; 6HR MAX TEMP:  70;

SOMERSET*      TSTM      63  61  94 N9        29.99R
MONTICELLO*    LGT RAIN  66  63  90 NW6       30.00R
6HR MIN TEMP:  65; 6HR MAX TEMP:  70; 6HR PCP:  0.32;

WILLIAMSBURG*  CLOUDY    72  64  78 W3        29.96F
MIDDLESBORO*   CLOUDY    74  63  66 S9        29.96F
6HR MIN TEMP:  63; 6HR MAX TEMP:  76;

HARLAN APT*    CLOUDY    73  61  64 CALM      29.96F
HAZARD APT*    CLOUDY    70  63  78 NW3       29.95F
BLACK MTN*       N/A     64  59  82 SW6         N/A
BIG SANDY APT* LGT RAIN  71  63  75 W3        29.95S
6HR MIN TEMP:  65; 6HR MAX TEMP:  74;

MOREHEAD APT*  MOCLDY    72  57  60 VRB7G14   30.00R
$$

KYZ035-036-041-042-044-050-067-078-099-021900
...CENTRAL KENTUCKY...

CITY           SKY/WX    TMP DP  RH WIND       PRES   REMARKS
MT STERLING*   RAIN      64  59  82 W7        29.98R
FLEMING/MASON* PTSUNNY   69  55  61 SW12      29.96S
DANVILLE*      LGT RAIN  61  61 100 S5        29.96F
RICHMOND*      CLOUDY    63  61  94 NW6       29.98S
LEXINGTON      LGT RAIN  61  56  83 E6        29.92F
6HR MIN TEMP:  61; 6HR MAX TEMP:  70; 6HR PCP:  0.04;

FRANKFORT      PTSUNNY   68  54  60 SW6       29.93F
6HR MIN TEMP:  60; 6HR MAX TEMP:  69;

LOUISVILLE     CLOUDY    65  54  67 W10       29.97S
6HR MIN TEMP:  61; 6HR MAX TEMP:  66; 6HR PCP: TRACE;

LEBANON*         N/A     63  59  88 S6        29.97R FOG
BOWLING GREEN  LGT RAIN  59  56  89 CALM      30.01F FOG
6HR MIN TEMP:  59; 6HR MAX TEMP:  65; 6HR PCP:  0.34;

$$

KYZ091>093-OHZ055-061-077-WVZ005-015-034-035-042-021900
...SOUTHERN OHIO/WEST VIRGINIA...

CITY           SKY/WX    TMP DP  RH WIND       PRES   REMARKS
COVINGTON      CLOUDY    64  53  67 W6        29.97R
COLUMBUS       CLOUDY    59  52  77 NW6       29.96R
DAYTON         CLOUDY    57  51  80 NW6       29.98S
WILMINGTON     CLOUDY    63  56  78 N6        29.94S
HUNTINGTON       N/A     77  57  50 W9        29.91F
CHARLESTON       N/A     78  57  48 W12       29.91F
PINEVILLE*     PTSUNNY   78  56  46 MISG      30.00F
BECKLEY        PTSUNNY   72  54  53 W6        29.99F
$$

VAZ002-007-008-TNZ017-027-036-066-071-021900
...SOUTHWEST VIRGINIA/EAST TENNESSEE...

CITY           SKY/WX    TMP DP  RH WIND       PRES   REMARKS
WISE*          CLOUDY    72  54  53 S10       30.01F
BRISTOL        PTSUNNY   76  59  55 SW10      29.97F
MORRISTOWN*    MOCLDY    77  61  57 W9        29.97S
SEVIERVILLE*   CLEAR     81  63  54 W9        29.95S
KNOXVILLE      CLOUDY    77  64  64 W13       29.96F
OAK RIDGE      CLOUDY    75  62  64 S8        29.99R
CROSSVILLE     LGT RAIN  68  64  87 CALM      30.01S FOG
NASHVILLE      LGT RAIN  59  55  88 S3        30.02S
$$

...KEY TO REMARKS...
VSB - VISIBILITY IN MILES
WCI - WIND CHILL INDEX
HX  - HEAT INDEX

$$



USA.gov is the U.S. government's official web portal to all federal, state and local government web resources and services.